Location: Camerons Lookout
(40.9833°S, 175.9333°E)
Time: 20:58:41
(UTC+00:00)

Meteor 2-3 Rocket - Pass Details

Date: 14 January 2026
Orbit: 844 x 881 km, 81.2° (Epoch: 18 February)

Event Time Altitude Azimuth Distance (km) Brightness Sun altitude
Rises 11:18:06 0° 186° (S) 3,500 8.2 -25.8°
Reaches altitude 10° 11:20:38 10° 182° (S) 2,550 7.1 -26.0°
Maximum altitude 11:26:21 58° 103° (ESE) 1,011 4.0 -26.3°
Enters shadow 11:26:52 56° 80° (E) 1,030 3.9 -26.3°
